Saint Bonnet de Bellac- Haute Vienne - France
Donnes mto: lundi, 23/04/2012
Date Horaire Temp. E. Hum. E. P.atmo. Pluie Vent Direction Direction Ensoleilleme Solaire P. de rose Temp au vent Rafales
23/04/2012 00:00 5,5 C 86 % 1011,9 hPa 0,0 mm 7,6 km/h (2 Bft) SO 225 0 min 0 W/m 3,3 C 3,8 C 11,9 km/h (2 Bft)
23/04/2012 00:10 5,5 C 86 % 1012,0 hPa 0,0 mm 5,0 km/h (1 Bft) SO 225 0 min 0 W/m 3,3 C 4,7 C 9,4 km/h (2 Bft)
23/04/2012 00:20 5,6 C 86 % 1011,9 hPa 0,0 mm 7,6 km/h (2 Bft) SO 225 0 min 0 W/m 3,4 C 3,9 C 11,5 km/h (2 Bft)
23/04/2012 00:30 5,6 C 86 % 1011,9 hPa 0,0 mm 5,8 km/h (2 Bft) S-SO 202 0 min 0 W/m 3,4 C 4,5 C 9,0 km/h (2 Bft)
23/04/2012 00:40 5,6 C 86 % 1011,7 hPa 0,0 mm 7,2 km/h (2 Bft) S-SO 202 0 min 0 W/m 3,4 C 4,1 C 11,2 km/h (2 Bft)
23/04/2012 00:50 5,6 C 86 % 1011,7 hPa 0,0 mm 7,9 km/h (2 Bft) O-SO 247 0 min 0 W/m 3,4 C 3,9 C 13,0 km/h (3 Bft)
23/04/2012 01:00 5,6 C 87 % 1011,6 hPa 0,0 mm 5,8 km/h (2 Bft) S-SO 202 0 min 0 W/m 3,6 C 4,5 C 9,4 km/h (2 Bft)
23/04/2012 01:10 5,4 C 87 % 1011,6 hPa 0,0 mm 4,7 km/h (1 Bft) S-SO 202 0 min 0 W/m 3,4 C 4,7 C 8,3 km/h (2 Bft)
23/04/2012 01:20 5,4 C 88 % 1011,5 hPa 0,0 mm 5,8 km/h (2 Bft) SO 225 0 min 0 W/m 3,6 C 4,2 C 7,9 km/h (2 Bft)
23/04/2012 01:30 5,3 C 88 % 1011,5 hPa 0,0 mm 4,0 km/h (1 Bft) SO 225 0 min 0 W/m 3,5 C 5,3 C 4,0 km/h (1 Bft)
23/04/2012 01:40 5,3 C 89 % 1011,4 hPa 0,0 mm 3,2 km/h (1 Bft) SO 225 0 min 0 W/m 3,6 C 5,3 C 6,1 km/h (2 Bft)
23/04/2012 01:50 5,4 C 90 % 1011,3 hPa 0,0 mm 2,5 km/h (1 Bft) O-SO 247 0 min 0 W/m 3,9 C 5,4 C 6,1 km/h (2 Bft)
23/04/2012 02:00 5,5 C 90 % 1011,3 hPa 0,0 mm 2,9 km/h (1 Bft) O-SO 247 0 min 0 W/m 4,0 C 5,5 C 4,0 km/h (1 Bft)
23/04/2012 02:10 5,7 C 90 % 1011,3 hPa 0,0 mm 5,4 km/h (2 Bft) S-SO 202 0 min 0 W/m 4,2 C 4,7 C 9,0 km/h (2 Bft)
23/04/2012 02:20 5,8 C 90 % 1011,2 hPa 0,0 mm 3,2 km/h (1 Bft) S-SO 202 0 min 0 W/m 4,3 C 5,8 C 3,2 km/h (1 Bft)
23/04/2012 02:30 5,8 C 90 % 1011,0 hPa 0,1 mm 5,8 km/h (2 Bft) S-SO 202 0 min 0 W/m 4,3 C 4,7 C 8,6 km/h (2 Bft)
23/04/2012 02:40 5,6 C 90 % 1010,8 hPa 0,0 mm 4,3 km/h (1 Bft) S-SO 202 0 min 0 W/m 4,1 C 5,6 C 6,5 km/h (2 Bft)
23/04/2012 02:50 5,4 C 90 % 1010,6 hPa 0,0 mm 6,5 km/h (2 Bft) SO 225 0 min 0 W/m 3,9 C 4,0 C 8,6 km/h (2 Bft)
23/04/2012 03:02 5,3 C 91 % 1010,5 hPa 0,0 mm 3,2 km/h (1 Bft) S 180 0 min 0 W/m 4,0 C 5,3 C 4,3 km/h (1 Bft)
23/04/2012 03:10 5,3 C 91 % 1010,3 hPa 0,0 mm 6,8 km/h (2 Bft) SO 225 0 min 0 W/m 4,0 C 3,8 C 8,3 km/h (2 Bft)
23/04/2012 03:20 5,2 C 91 % 1010,1 hPa 0,0 mm 5,0 km/h (1 Bft) SO 225 0 min 0 W/m 3,9 C 4,3 C 7,2 km/h (2 Bft)
23/04/2012 03:30 5,1 C 92 % 1010,1 hPa 0,0 mm 6,1 km/h (2 Bft) SO 225 0 min 0 W/m 3,9 C 3,8 C 9,4 km/h (2 Bft)
23/04/2012 03:40 5,1 C 92 % 1009,8 hPa 0,0 mm 5,0 km/h (1 Bft) S-SO 202 0 min 0 W/m 3,9 C 4,2 C 6,1 km/h (2 Bft)
23/04/2012 03:50 5,2 C 92 % 1009,7 hPa 0,0 mm 4,0 km/h (1 Bft) S-SO 202 0 min 0 W/m 4,0 C 5,2 C 6,8 km/h (2 Bft)
23/04/2012 04:00 5,3 C 92 % 1009,6 hPa 0,0 mm 4,0 km/h (1 Bft) SO 225 0 min 0 W/m 4,1 C 5,3 C 8,3 km/h (2 Bft)
23/04/2012 04:10 5,4 C 92 % 1009,5 hPa 0,0 mm 4,0 km/h (1 Bft) S-SO 202 0 min 0 W/m 4,2 C 5,4 C 4,0 km/h (1 Bft)
23/04/2012 04:20 5,4 C 92 % 1009,3 hPa 0,0 mm 5,0 km/h (1 Bft) SO 225 0 min 0 W/m 4,2 C 4,5 C 7,9 km/h (2 Bft)
23/04/2012 04:30 5,5 C 93 % 1009,1 hPa 0,0 mm 5,0 km/h (1 Bft) S 180 0 min 0 W/m 4,5 C 4,7 C 8,6 km/h (2 Bft)
23/04/2012 04:40 5,5 C 93 % 1008,9 hPa 0,0 mm 4,3 km/h (1 Bft) S-SO 202 0 min 0 W/m 4,5 C 5,5 C 7,9 km/h (2 Bft)
23/04/2012 04:50 5,5 C 92 % 1008,7 hPa 0,0 mm 3,6 km/h (1 Bft) S 180 0 min 0 W/m 4,3 C 5,5 C 7,9 km/h (2 Bft)
23/04/2012 05:00 5,4 C 92 % 1008,6 hPa 0,0 mm 6,8 km/h (2 Bft) S-SO 202 0 min 0 W/m 4,2 C 3,9 C 8,3 km/h (2 Bft)
23/04/2012 05:10 5,4 C 92 % 1008,6 hPa 0,0 mm 6,1 km/h (2 Bft) S-SO 202 0 min 0 W/m 4,2 C 4,2 C 9,4 km/h (2 Bft)
23/04/2012 05:20 5,5 C 93 % 1008,5 hPa 0,0 mm 8,6 km/h (2 Bft) S-SO 202 0 min 0 W/m 4,5 C 3,6 C 9,4 km/h (2 Bft)
23/04/2012 05:30 5,6 C 92 % 1008,3 hPa 0,0 mm 9,4 km/h (2 Bft) S-SO 202 0 min 0 W/m 4,4 C 3,5 C 11,9 km/h (2 Bft)
23/04/2012 05:40 5,8 C 92 % 1008,0 hPa 0,0 mm 4,3 km/h (1 Bft) S-SO 202 0 min 0 W/m 4,6 C 5,8 C 4,3 km/h (1 Bft)
23/04/2012 05:50 5,8 C 92 % 1007,8 hPa 0,0 mm 9,7 km/h (2 Bft) S-SO 202 0 min 0 W/m 4,6 C 3,7 C 13,0 km/h (3 Bft)
23/04/2012 06:00 5,9 C 92 % 1007,6 hPa 0,0 mm 4,7 km/h (1 Bft) SO 225 0 min 0 W/m 4,7 C 5,2 C 9,0 km/h (2 Bft)
23/04/2012 06:10 5,9 C 91 % 1007,3 hPa 0,0 mm 7,6 km/h (2 Bft) S 180 0 min 0 W/m 4,5 C 4,3 C 7,9 km/h (2 Bft)
23/04/2012 06:20 5,9 C 91 % 1007,0 hPa 0,0 mm 2,5 km/h (1 Bft) SO 225 0 min 0 W/m 4,5 C 5,9 C 4,0 km/h (1 Bft)
23/04/2012 06:30 6,1 C 91 % 1006,9 hPa 0,0 mm 11,5 km/h (2 Bft) S-SO 202 0 min 0 W/m 4,7 C 3,7 C 22,7 km/h (4 Bft)
23/04/2012 06:40 6,3 C 92 % 1006,7 hPa 0,0 mm 7,2 km/h (2 Bft) SO 225 0 min 0 W/m 5,1 C 4,9 C 9,7 km/h (2 Bft)
23/04/2012 06:50 6,3 C 92 % 1006,6 hPa 0,0 mm 11,2 km/h (2 Bft) S 180 0 min 0 W/m 5,1 C 4,0 C 16,9 km/h (3 Bft)
23/04/2012 07:00 6,4 C 92 % 1006,3 hPa 0,0 mm 4,3 km/h (1 Bft) S-SO 202 0 min 0 W/m 5,2 C 6,4 C 6,8 km/h (2 Bft)
23/04/2012 07:10 6,4 C 92 % 1006,2 hPa 0,0 mm 8,3 km/h (2 Bft) S 180 2 min 0 W/m 5,2 C 4,7 C 20,5 km/h (4 Bft)
23/04/2012 07:20 6,5 C 91 % 1006,0 hPa 0,0 mm 11,2 km/h (2 Bft) S-SE 157 2 min 0 W/m 5,1 C 4,2 C 15,5 km/h (3 Bft)
23/04/2012 07:30 6,6 C 91 % 1005,8 hPa 0,0 mm 6,8 km/h (2 Bft) S 180 2 min 0 W/m 5,2 C 5,3 C 10,4 km/h (2 Bft)
23/04/2012 07:40 6,6 C 91 % 1005,7 hPa 0,0 mm 4,0 km/h (1 Bft) S-SO 202 2 min 0 W/m 5,2 C 6,6 C 6,5 km/h (2 Bft)
23/04/2012 07:50 6,8 C 91 % 1005,5 hPa 0,0 mm 6,1 km/h (2 Bft) S-SO 202 2 min 0 W/m 5,4 C 5,8 C 13,3 km/h (3 Bft)
23/04/2012 08:00 6,8 C 91 % 1005,4 hPa 0,0 mm 8,3 km/h (2 Bft) S 180 2 min 0 W/m 5,4 C 5,2 C 8,3 km/h (2 Bft)
23/04/2012 08:10 6,9 C 91 % 1005,2 hPa 0,0 mm 11,5 km/h (2 Bft) S 180 2 min 0 W/m 5,5 C 4,6 C 16,2 km/h (3 Bft)
23/04/2012 08:20 6,9 C 91 % 1005,0 hPa 0,0 mm 6,8 km/h (2 Bft) S 180 2 min 0 W/m 5,5 C 5,7 C 11,9 km/h (2 Bft)
23/04/2012 08:30 7,0 C 91 % 1004,9 hPa 0,1 mm 8,3 km/h (2 Bft) S-SO 202 2 min 0 W/m 5,6 C 5,4 C 11,9 km/h (2 Bft)
23/04/2012 08:40 7,1 C 91 % 1004,7 hPa 0,0 mm 9,0 km/h (2 Bft) S-SO 202 2 min 0 W/m 5,7 C 5,4 C 13,0 km/h (3 Bft)
23/04/2012 08:50 7,1 C 91 % 1004,4 hPa 0,1 mm 13,0 km/h (3 Bft) S-SO 202 2 min 0 W/m 5,7 C 4,6 C 17,3 km/h (3 Bft)
23/04/2012 09:00 7,1 C 91 % 1004,3 hPa 0,0 mm 8,6 km/h (2 Bft) S-SO 202 2 min 0 W/m 5,7 C 5,5 C 19,4 km/h (3 Bft)
23/04/2012 09:10 7,2 C 91 % 1004,3 hPa 0,1 mm 12,6 km/h (3 Bft) SO 225 2 min 0 W/m 5,8 C 4,8 C 18,7 km/h (3 Bft)
23/04/2012 09:20 7,2 C 92 % 1004,2 hPa 0,1 mm 16,9 km/h (3 Bft) S-SO 202 2 min 0 W/m 6,0 C 4,2 C 19,8 km/h (3 Bft)
23/04/2012 09:30 7,2 C 92 % 1003,9 hPa 0,0 mm 8,6 km/h (2 Bft) S-SO 202 2 min 0 W/m 6,0 C 5,6 C 14,8 km/h (3 Bft)
23/04/2012 09:40 7,2 C 92 % 1003,7 hPa 0,1 mm 6,5 km/h (2 Bft) SO 225 2 min 0 W/m 6,0 C 6,1 C 7,2 km/h (2 Bft)
23/04/2012 09:50 7,2 C 91 % 1003,4 hPa 0,1 mm 7,6 km/h (2 Bft) SE 135 2 min 0 W/m 5,8 C 5,8 C 10,8 km/h (2 Bft)
23/04/2012 10:00 7,3 C 92 % 1003,2 hPa 0,0 mm 10,4 km/h (2 Bft) S 180 2 min 0 W/m 6,1 C 5,3 C 14,0 km/h (3 Bft)
23/04/2012 10:10 7,4 C 92 % 1002,9 hPa 0,2 mm 18,4 km/h (3 Bft) SO 225 2 min 0 W/m 6,2 C 4,3 C 21,6 km/h (4 Bft)
23/04/2012 10:20 7,4 C 92 % 1002,8 hPa 0,1 mm 13,0 km/h (3 Bft) SO 225 2 min 0 W/m 6,2 C 5,0 C 13,7 km/h (3 Bft)
23/04/2012 10:30 7,4 C 92 % 1002,7 hPa 0,2 mm 12,6 km/h (3 Bft) SO 225 2 min 0 W/m 6,2 C 5,1 C 13,7 km/h (3 Bft)
23/04/2012 10:40 7,4 C 92 % 1002,4 hPa 0,1 mm 9,7 km/h (2 Bft) O-SO 247 2 min 0 W/m 6,2 C 5,6 C 12,6 km/h (3 Bft)
23/04/2012 10:50 7,5 C 92 % 1002,2 hPa 0,1 mm 9,4 km/h (2 Bft) S-SO 202 2 min 0 W/m 6,3 C 5,8 C 9,4 km/h (2 Bft)
23/04/2012 11:00 7,6 C 92 % 1002,0 hPa 0,1 mm 17,3 km/h (3 Bft) S-SO 202 2 min 0 W/m 6,4 C 4,7 C 24,8 km/h (4 Bft)
23/04/2012 11:10 7,7 C 92 % 1001,9 hPa 0,1 mm 14,4 km/h (3 Bft) SO 225 2 min 0 W/m 6,5 C 5,2 C 16,9 km/h (3 Bft)
23/04/2012 11:20 7,7 C 92 % 1001,7 hPa 0,2 mm 11,5 km/h (2 Bft) S 180 2 min 0 W/m 6,5 C 5,6 C 21,2 km/h (4 Bft)
23/04/2012 11:30 7,7 C 92 % 1001,3 hPa 0,0 mm 14,8 km/h (3 Bft) S 180 2 min 0 W/m 6,5 C 5,1 C 18,7 km/h (3 Bft)
23/04/2012 11:40 7,8 C 91 % 1000,9 hPa 0,1 mm 10,4 km/h (2 Bft) S-SO 202 2 min 0 W/m 6,4 C 5,9 C 13,3 km/h (3 Bft)
23/04/2012 11:50 7,8 C 91 % 1000,7 hPa 0,0 mm 19,1 km/h (3 Bft) S-SO 202 2 min 0 W/m 6,4 C 4,7 C 19,1 km/h (3 Bft)
23/04/2012 12:00 7,8 C 91 % 1000,5 hPa 0,0 mm 18,0 km/h (3 Bft) S 180 2 min 0 W/m 6,4 C 4,8 C 24,8 km/h (4 Bft)
23/04/2012 12:10 7,8 C 91 % 1000,3 hPa 0,1 mm 14,4 km/h (3 Bft) S-SO 202 2 min 0 W/m 6,4 C 5,3 C 14,4 km/h (3 Bft)
23/04/2012 12:20 7,8 C 91 % 1000,2 hPa 0,0 mm 13,0 km/h (3 Bft) S-SO 202 2 min 0 W/m 6,4 C 5,5 C 20,2 km/h (4 Bft)
23/04/2012 12:30 7,8 C 92 % 999,9 hPa 0,1 mm 14,4 km/h (3 Bft) S-SO 202 2 min 0 W/m 6,6 C 5,3 C 14,4 km/h (3 Bft)
23/04/2012 12:40 7,8 C 92 % 999,6 hPa 0,1 mm 20,5 km/h (4 Bft) SO 225 2 min 0 W/m 6,6 C 4,5 C 22,0 km/h (4 Bft)
23/04/2012 12:50 7,8 C 92 % 999,7 hPa 0,1 mm 18,0 km/h (3 Bft) SO 225 2 min 0 W/m 6,6 C 4,8 C 21,2 km/h (4 Bft)
23/04/2012 13:00 7,8 C 92 % 999,5 hPa 0,2 mm 14,4 km/h (3 Bft) S-SO 202 2 min 0 W/m 6,6 C 5,3 C 19,1 km/h (3 Bft)
23/04/2012 13:10 8,0 C 92 % 999,7 hPa 0,0 mm 20,9 km/h (4 Bft) S-SO 202 2 min 0 W/m 6,8 C 4,8 C 25,6 km/h (4 Bft)
23/04/2012 13:20 8,3 C 92 % 999,4 hPa 0,2 mm 18,0 km/h (3 Bft) S 180 2 min 0 W/m 7,1 C 5,4 C 20,5 km/h (4 Bft)
23/04/2012 13:30 8,6 C 91 % 999,3 hPa 0,0 mm 22,0 km/h (4 Bft) O-SO 247 2 min 0 W/m 7,2 C 5,4 C 29,9 km/h (5 Bft)
23/04/2012 13:40 8,8 C 90 % 999,4 hPa 0,0 mm 22,7 km/h (4 Bft) S-SO 202 2 min 0 W/m 7,3 C 5,6 C 36,7 km/h (5 Bft)
23/04/2012 13:50 8,4 C 90 % 999,5 hPa 0,1 mm 18,0 km/h (3 Bft) S-SO 202 2 min 0 W/m 6,9 C 5,6 C 24,1 km/h (4 Bft)
23/04/2012 14:00 8,3 C 91 % 999,6 hPa 0,1 mm 10,4 km/h (2 Bft) SO 225 2 min 0 W/m 6,9 C 6,5 C 12,2 km/h (2 Bft)
23/04/2012 14:10 8,3 C 92 % 999,5 hPa 0,0 mm 19,4 km/h (3 Bft) S-SO 202 2 min 0 W/m 7,1 C 5,3 C 30,6 km/h (5 Bft)
23/04/2012 14:20 8,6 C 93 % 999,3 hPa 0,1 mm 12,6 km/h (3 Bft) SO 225 2 min 0 W/m 7,5 C 6,5 C 13,0 km/h (3 Bft)
23/04/2012 14:30 8,9 C 91 % 999,1 hPa 0,0 mm 14,8 km/h (3 Bft) S-SO 202 2 min 0 W/m 7,5 C 6,6 C 23,0 km/h (4 Bft)
23/04/2012 14:40 9,1 C 88 % 998,9 hPa 0,0 mm 13,0 km/h (3 Bft) O-SO 247 2 min 0 W/m 7,2 C 7,1 C 19,1 km/h (3 Bft)
23/04/2012 14:50 9,2 C 89 % 998,8 hPa 0,0 mm 13,3 km/h (3 Bft) SO 225 2 min 0 W/m 7,5 C 7,2 C 19,8 km/h (3 Bft)
23/04/2012 15:00 9,6 C 87 % 998,6 hPa 0,0 mm 19,1 km/h (3 Bft) S-SO 202 2 min 0 W/m 7,5 C 7,0 C 25,9 km/h (4 Bft)
23/04/2012 15:10 9,6 C 86 % 998,5 hPa 0,0 mm 9,7 km/h (2 Bft) S 180 2 min 0 W/m 7,4 C 8,2 C 19,8 km/h (3 Bft)
23/04/2012 15:20 10,3 C 87 % 998,6 hPa 0,1 mm 16,2 km/h (3 Bft) O-SO 247 2 min 0 W/m 8,2 C 10,3 C 24,1 km/h (4 Bft)
23/04/2012 15:30 10,9 C 83 % 998,5 hPa 0,0 mm 16,2 km/h (3 Bft) S-SO 202 2 min 0 W/m 8,1 C 10,9 C 28,8 km/h (5 Bft)
23/04/2012 15:40 11,1 C 80 % 998,4 hPa 0,0 mm 10,8 km/h (2 Bft) S-SO 202 2 min 0 W/m 7,8 C 11,1 C 17,6 km/h (3 Bft)
23/04/2012 15:50 11,1 C 80 % 998,4 hPa 0,0 mm 16,9 km/h (3 Bft) SO 225 2 min 0 W/m 7,8 C 11,1 C 25,6 km/h (4 Bft)
23/04/2012 16:00 10,8 C 82 % 998,3 hPa 0,0 mm 16,9 km/h (3 Bft) SO 225 2 min 0 W/m 7,9 C 10,8 C 24,5 km/h (4 Bft)
23/04/2012 16:10 10,6 C 84 % 998,3 hPa 0,0 mm 20,2 km/h (4 Bft) SO 225 2 min 0 W/m 8,0 C 10,6 C 30,2 km/h (5 Bft)
23/04/2012 16:20 10,9 C 78 % 998,2 hPa 0,1 mm 22,0 km/h (4 Bft) O-SO 247 2 min 0 W/m 7,2 C 10,9 C 22,0 km/h (4 Bft)
23/04/2012 16:30 10,3 C 78 % 998,8 hPa 0,3 mm 9,4 km/h (2 Bft) SO 225 2 min 0 W/m 6,6 C 10,3 C 10,8 km/h (2 Bft)
23/04/2012 16:40 8,9 C 82 % 998,6 hPa 0,1 mm 5,0 km/h (1 Bft) SO 225 2 min 0 W/m 6,0 C 8,5 C 12,6 km/h (3 Bft)
23/04/2012 16:50 8,3 C 87 % 998,4 hPa 0,0 mm 8,3 km/h (2 Bft) S-SO 202 2 min 0 W/m 6,3 C 6,9 C 14,8 km/h (3 Bft)
23/04/2012 17:00 8,1 C 89 % 998,6 hPa 0,2 mm 6,8 km/h (2 Bft) SO 225 2 min 0 W/m 6,4 C 7,1 C 9,7 km/h (2 Bft)
23/04/2012 17:10 8,2 C 92 % 998,3 hPa 0,0 mm 13,7 km/h (3 Bft) SO 225 2 min 0 W/m 7,0 C 5,9 C 20,5 km/h (4 Bft)
23/04/2012 17:20 8,9 C 93 % 998,2 hPa 0,0 mm 12,2 km/h (2 Bft) S-SO 202 2 min 0 W/m 7,8 C 7,0 C 20,2 km/h (4 Bft)
23/04/2012 17:30 8,9 C 89 % 998,0 hPa 0,0 mm 15,5 km/h (3 Bft) SO 225 2 min 0 W/m 7,2 C 6,5 C 24,1 km/h (4 Bft)
23/04/2012 17:40 8,9 C 89 % 997,9 hPa 0,0 mm 16,9 km/h (3 Bft) SO 225 2 min 0 W/m 7,2 C 6,3 C 16,9 km/h (3 Bft)
23/04/2012 17:50 9,8 C 84 % 998,0 hPa 0,2 mm 5,4 km/h (2 Bft) SO 225 2 min 0 W/m 7,2 C 9,4 C 5,4 km/h (2 Bft)
23/04/2012 18:00 8,6 C 86 % 998,1 hPa 0,5 mm 4,3 km/h (1 Bft) SO 225 2 min 0 W/m 6,4 C 8,6 C 7,6 km/h (2 Bft)
23/04/2012 18:10 8,0 C 87 % 998,6 hPa 0,5 mm 6,1 km/h (2 Bft) O-SO 247 2 min 0 W/m 6,0 C 7,1 C 12,2 km/h (2 Bft)
23/04/2012 18:20 7,3 C 88 % 998,5 hPa 0,5 mm 5,4 km/h (2 Bft) O 270 2 min 0 W/m 5,4 C 6,6 C 10,8 km/h (2 Bft)
23/04/2012 18:30 6,9 C 89 % 998,9 hPa 0,4 mm 7,6 km/h (2 Bft) O 270 2 min 0 W/m 5,2 C 5,5 C 18,4 km/h (3 Bft)
23/04/2012 18:40 6,4 C 89 % 998,8 hPa 0,3 mm 11,5 km/h (2 Bft) SO 225 2 min 0 W/m 4,7 C 4,0 C 20,2 km/h (4 Bft)
23/04/2012 18:50 6,3 C 92 % 998,5 hPa 0,1 mm 11,2 km/h (2 Bft) SO 225 2 min 0 W/m 5,1 C 4,0 C 18,7 km/h (3 Bft)
23/04/2012 19:00 6,4 C 92 % 998,2 hPa 0,0 mm 7,9 km/h (2 Bft) O-SO 247 2 min 0 W/m 5,2 C 4,8 C 7,9 km/h (2 Bft)
23/04/2012 19:10 6,6 C 92 % 998,0 hPa 0,0 mm 9,7 km/h (2 Bft) SO 225 2 min 0 W/m 5,4 C 4,6 C 13,0 km/h (3 Bft)
23/04/2012 19:20 6,8 C 92 % 998,1 hPa 0,0 mm 10,1 km/h (2 Bft) SO 225 2 min 0 W/m 5,6 C 4,8 C 13,3 km/h (3 Bft)
23/04/2012 19:30 6,8 C 91 % 997,7 hPa 0,0 mm 10,8 km/h (2 Bft) SO 225 2 min 0 W/m 5,4 C 4,7 C 18,0 km/h (3 Bft)
23/04/2012 19:40 7,1 C 91 % 997,9 hPa 0,0 mm 6,5 km/h (2 Bft) SO 225 2 min 0 W/m 5,7 C 6,0 C 11,5 km/h (2 Bft)
23/04/2012 19:50 7,0 C 90 % 997,8 hPa 0,0 mm 7,6 km/h (2 Bft) O-SO 247 2 min 0 W/m 5,5 C 5,6 C 7,6 km/h (2 Bft)
23/04/2012 20:00 6,9 C 91 % 997,8 hPa 0,1 mm 11,5 km/h (2 Bft) SO 225 2 min 0 W/m 5,5 C 4,6 C 15,5 km/h (3 Bft)
23/04/2012 20:10 6,8 C 89 % 997,5 hPa 0,4 mm 8,6 km/h (2 Bft) S-SO 202 2 min 0 W/m 5,1 C 5,1 C 14,4 km/h (3 Bft)
23/04/2012 20:20 6,4 C 90 % 997,8 hPa 0,8 mm 11,5 km/h (2 Bft) S-SO 202 2 min 0 W/m 4,9 C 4,0 C 15,8 km/h (3 Bft)
23/04/2012 20:30 6,1 C 91 % 997,5 hPa 0,1 mm 5,8 km/h (2 Bft) SO 225 2 min 0 W/m 4,7 C 5,1 C 9,7 km/h (2 Bft)
23/04/2012 20:40 6,2 C 92 % 997,6 hPa 0,0 mm 6,8 km/h (2 Bft) SO 225 2 min 0 W/m 5,0 C 4,9 C 10,8 km/h (2 Bft)
23/04/2012 20:50 6,4 C 93 % 997,4 hPa 0,0 mm 11,5 km/h (2 Bft) SO 225 0 min 0 W/m 5,4 C 4,0 C 14,0 km/h (3 Bft)
23/04/2012 21:00 6,4 C 93 % 997,3 hPa 0,1 mm 11,5 km/h (2 Bft) SO 225 0 min 0 W/m 5,4 C 4,0 C 14,0 km/h (3 Bft)
23/04/2012 21:10 6,4 C 93 % 997,3 hPa 0,0 mm 11,5 km/h (2 Bft) N 360 0 min 0 W/m 5,4 C 4,0 C 11,5 km/h (2 Bft)
23/04/2012 21:20 6,4 C 93 % 997,2 hPa 0,0 mm 11,5 km/h (2 Bft) N 360 0 min 0 W/m 5,4 C 4,0 C 11,5 km/h (2 Bft)
23/04/2012 21:30 6,6 C 91 % 997,1 hPa 0,0 mm 15,5 km/h (3 Bft) S-SO 202 0 min 0 W/m 5,2 C 3,7 C 18,7 km/h (3 Bft)
23/04/2012 21:40 6,8 C 91 % 997,3 hPa 0,0 mm 10,1 km/h (2 Bft) SO 225 0 min 0 W/m 5,4 C 4,8 C 16,6 km/h (3 Bft)
23/04/2012 21:50 6,8 C 91 % 997,1 hPa 0,0 mm 13,3 km/h (3 Bft) SO 225 0 min 0 W/m 5,4 C 4,2 C 22,0 km/h (4 Bft)
23/04/2012 22:00 6,9 C 89 % 997,0 hPa 0,1 mm 16,9 km/h (3 Bft) SO 225 0 min 0 W/m 5,2 C 3,8 C 22,3 km/h (4 Bft)
23/04/2012 22:10 6,9 C 88 % 997,1 hPa 0,0 mm 16,6 km/h (3 Bft) S 180 0 min 0 W/m 5,1 C 3,9 C 24,8 km/h (4 Bft)
_ Min-Heure 03:40 16:30 22:00 - 06:20 - - - - 00:10 05:30 02:20
Minimum _ 5,1 C 78 % 997,0 hPa - 2,5 km/h (1 Bft) - - - - 3,3 C 3,5 C 3,2 km/h (1 Bft)
_ Max-Heure 15:50 21:20 00:10 20:20 13:40 - - 20:40 22:10 15:20 15:50 13:40
Maximum _ 11,1 C 93 % 1012,0 hPa 0,8 mm 22,7 km/h
S-SO (4 Bft)
- - 2 min 0 W/m 8,2 C 11,1 C 36,7 km/h
S-SO (5 Bft)
Moyenne _ 7,1 C 90 % 1003,2 hPa #8,2 mm 10,2 km/h (2 Bft) SO - #2:44 h 0 W/m 5,6 C 5,5 C 14,4 km/h (3 Bft)
Saint Bonnet de Bellac- Haute Vienne - France